Powrót do katalogu

STARLINK-37474

AktywnyŁącznośćVLEO
NORAD 69167·PAYLOAD·🇺🇸 United States

Wystrzelony May 21, 2026 z Cape Canaveral Space Force Station

Loading…

Następne Przeloty (najbliższe 24 godziny)

TLE

ŚwieżeSource: CelesTrak SupGP

Epoka: Sep 14, 2026, 15:45 UTC

1 69167C 26111V   26257.65673611 -.00030431  00000+0 -89891-3 0  2574
2 69167  53.1577  92.9386 0001326  88.9283 246.6616 15.34411928    16

Śledź STARLINK-37474 w czasie rzeczywistym z AllMySat

Download on the App Store